Location: ?????
(32.7281°N, 34.9563°E)
Time: 18:46:34
(UTC+00:00)

Cosmos 1408 - Pass Details

Date: 29 October 2020
Orbit: 470 x 492 km, 82.6° (Epoch: 30 November)

Event Time Altitude Azimuth Distance (km) Brightness Sun altitude
Rises 16:41:56 0° 344° (NNW) 2,556 6.4 -23.7°
Reaches altitude 10° 16:44:07 10° 337° (NNW) 1,675 5.5 -24.1°
Maximum altitude 16:47:33 39° 268° (W) 740 3.9 -24.9°
Drops below altitude 10° 16:51:00 10° 198° (SSW) 1,674 5.5 -25.6°
Sets 16:53:10 0° 190° (S) 2,554 6.4 -26.0°
